Location: Bay Shore
(40.7251°N, 73.2454°W)
Time: 06:16:50
(UTC+00:00)

Daily predictions for brighter satellites

Satellite Brightness Start Highest point End
(mag) Time Altitude Azimuth Time Altitude Azimuth Time Altitude Azimuth
SKYMED 2 4.4 22:21:34 10° NNE 22:25:27 31° E 22:29:19 10° SSE
Cosmos 1939 Rocket 3.3 22:25:28 10° SE 22:29:20 40° ENE 22:33:11 10° N
Cosmos 1943 3.6 22:29:15 10° NNW 22:34:54 70° WSW 22:40:29 10° SSE
Cosmos 1626 4.2 22:33:25 10° SW 22:36:42 30° WNW 22:40:00 10° NNW
Cosmos 1315 Rocket 3.3 22:35:58 10° NNW 22:39:55 66° W 22:43:54 10° S
Hubble Space Telescope 3.2 22:37:58 10° SSW 22:39:57 13° S 22:41:57 10° SE
Cosmos 2058 Rocket 3.5 22:36:17 10° N 22:40:35 42° ENE 22:44:52 10° SSE
Meteor 1-24 Rocket 4.0 22:37:29 10° SSW 22:42:49 70° W 22:48:07 10° N
Cosmos 1844 4.2 22:38:28 10° S 22:43:40 40° ESE 22:48:57 10° NE
X-37B 0.6 22:40:46 10° WSW 22:43:56 78° SSE 22:46:37 14° ENE
CZ-4 R/B 2.5 22:41:00 10° ESE 22:44:15 23° ENE 22:47:29 10° NNE
Cosmos 773 Rocket 4.1 22:40:44 10° NNW 22:45:53 82° WSW 22:51:00 10° SSE
H-2A R/B 2.9 22:42:47 10° ESE 22:46:47 25° ENE 22:50:51 10° NNE
CZ-2C R/B 3.4 22:46:28 10° SE 22:51:31 49° ENE 22:56:51 10° N
Okean 1-7 Rocket 3.7 22:48:23 10° S 22:52:50 59° E 22:57:20 10° NNE
Cosmos 1726 Rocket 3.6 22:48:28 10° N 22:52:51 85° W 22:57:15 10° S
Nadezhda 4 Rocket 4.1 22:47:39 10° SSE 22:53:43 54° E 22:59:44 10° NNE
MOS 1 Rocket 3.2 22:52:30 10° NNE 22:56:42 51° E 23:00:52 10° S
Cosmos 1626 Rocket 4.2 22:54:17 10° SSE 22:58:12 33° E 23:02:09 10° NNE
COSMOS 2455 3.2 22:54:28 10° SW 23:00:28 69° WNW 23:06:30 10° NNE
Cosmos 1818 3.5 22:55:21 10° SSW 23:00:45 81° ESE 23:06:14 10° NE
Cosmos 1844 Rocket 2.7 22:56:02 10° SSW 23:01:41 72° ESE 23:07:19 10° NNE
Feng Yun 1-1 Rocket 4.1 22:56:26 10° SSE 23:01:49 76° ENE 23:07:21 10° N
Meteor 2-13 Rocket 4.4 22:57:23 10° S 23:03:23 62° E 23:09:26 10° NNE
Iridium 4 Rocket 4.5 22:59:32 10° NNE 23:04:11 26° ENE 23:08:30 10° SE
CZ-2D R/B 3.1 23:00:52 10° SSE 23:04:42 69° ENE 23:08:32 10° N
CZ-4 R/B 4.4 23:00:44 10° SSE 23:04:47 60° ENE 23:08:52 10° N
ISS -3.1 23:05:56 10° WSW 23:09:13 50° NNW 23:11:14 21° NE
Cosmos 44 3.8 23:05:41 10° S 23:10:01 39° ESE 23:12:52 20° ENE
Aureole 2 Rocket 3.0 23:10:37 10° SW 23:13:30 47° WNW 23:16:30 10° N
COSMO-SKYMED 1 2.8 23:09:18 10° N 23:13:39 74° WNW 23:17:58 10° SSW
Meteor 2-10 Rocket 3.6 23:08:43 10° N 23:14:13 84° W 23:19:26 10° S
Cosmos 2278 Rocket 3.8 23:11:06 10° SE 23:13:17 15° ESE 23:13:17 15° ESE
Meteor 1-21 Rocket 4.1 23:12:22 10° S 23:17:49 66° E 23:23:19 10° NNE
Cosmos 1937 Rocket 4.4 23:15:16 10° SSE 23:19:42 28° E 23:21:04 25° ENE
Cosmos 1538 Rocket 4.3 23:18:37 10° NNW 23:23:45 67° WSW 23:28:51 10° S
CSL-04 Rocket 4.1 23:20:33 10° SE 23:25:30 39° ENE 23:30:32 10° N
Cosmos 1689 Rocket 1.8 23:25:19 43° NNE 23:26:06 71° E 23:28:55 10° S
Okean-O 2.5 23:23:28 10° SSE 23:27:52 65° ENE 23:32:15 10° N
Cosmos 2112 Rocket 4.5 23:23:05 10° N 23:27:57 37° ENE 23:30:20 24° ESE
Okean O Rocket 4.1 23:25:05 10° SSW 23:28:43 24° W 23:32:20 10° NW
Lacrosse 5 1.8 23:24:02 10° NW 23:29:04 61° NE 23:31:50 26° ESE
ATLAS 5 CENTAUR R/B 4.2 23:28:28 10° NW 23:29:56 11° NNW 23:31:28 10° N
Cosmos 2026 Rocket 4.1 23:24:43 10° SSE 23:30:31 48° E 23:36:26 10° NNE
Helios 1A Rocket 3.0 23:26:38 10° SSE 23:30:38 51° ENE 23:34:40 10° N
Cosmos 1455 2.1 23:27:15 10° N 23:31:04 88° W 23:34:54 10° S
Cosmos 1340 2.8 23:28:53 10° SSE 23:32:27 45° E 23:32:34 44° E
Aureole 3 2.8 23:33:34 10° N 23:36:53 76° W 23:39:52 10° S
NOSS 2-1 (E) 3.0 23:34:11 10° SSW 23:37:25 53° SE 23:37:25 53° SE
Cosmos 1602 Rocket 3.4 23:34:25 10° S 23:38:42 70° E 23:41:52 18° NNE
Cosmos 1703 3.1 23:38:26 10° S 23:42:18 90° S 23:44:38 23° N
YAOGAN 1 2.5 23:37:59 10° SSE 23:42:18 90° S 23:46:40 10° NNW
CZ-4B R/B 3.9 23:39:57 10° NNW 23:42:32 21° WNW 23:45:04 10° WSW
ERS-2 3.0 23:39:02 10° N 23:42:33 48° WNW 23:46:03 10° SSW
Meteor 2-8 Rocket 4.3 23:47:30 10° N 23:53:36 71° E 23:59:41 10° SSE
